Regional Weather Roundup
Issued by NWS

Home | Current Version | Previous Version | Graphics & Text | Print | Product List | Glossary On
Versions: 1 2 3 4 5 6 7 8 9 10 11 12 13 14 15 16 17 18 19 20 21 22 23 24 25 26 27 28 29 30 31 32 33 34 35 36 37 38 39 40 41 42 43 44 45 46 47 48 49 50
961
ASUS45 KSLC 211210
RWRUT

UTAH REGIONAL WEATHER ROUNDUP
NATIONAL WEATHER SERVICE SALT LAKE CITY UT
500 AM MST SAT JAN 21 2017

UTZ001>011-023>025-211300-

NORTHERN UTAH

CITY           SKY/WX    TMP DP  RH WIND       PRES   REMARKS
BRIGHAM CITY     N/A     31  29  93 CALM      29.30R
HILL AFB       LGT SNOW  32  30  93 E6        29.27S FOG     WCI  26
LOGAN          LGT SNOW  25  25 100 CALM      29.30S FOG
OGDEN          LGT SNOW  32  31  96 CALM      29.27S FOG
SALT LAKE CITY LGT SNOW  33  32  96 CALM      29.28R FOG
TOOELE VALLEY  LGT SNOW  32  32 100 CALM      29.28S
WENDOVER       CLOUDY    27  23  86 NE6       29.32R WCI  20
HEBER CITY     LGT SNOW  28  28 100 CALM      29.25F
WEST JORDAN    CLOUDY    32  32 100 CALM      29.27S

$$

UTZ011>015-024>027-211300-

CENTRAL/NORTHEAST UTAH

CITY           SKY/WX    TMP DP  RH WIND       PRES   REMARKS
PROVO AIRPORT  LGT SNOW  32  30  93 NW3       29.28R FOG
MOAB/CANYONLAN MIX PCPN  34  33  96 NE7       29.28F WCI  28
DELTA          CLOUDY    32  32 100 SW5       29.27R VSB 1/2 WCI  27
PRICE          LGT SNOW  30  29  96 E3        29.28S FOG
RICHFIELD      CLOUDY    30  30 100 CALM      29.29S FOG
ROOSEVELT      LGT SNOW  23  21  93 CALM      29.37S
VERNAL         LGT SNOW  20  18  92 CALM      29.35S FOG

$$

UTZ013>016-019>022-027-211300-

SOUTHERN UTAH

CITY           SKY/WX    TMP DP  RH WIND       PRES   REMARKS
BRYCE CANYON   CLOUDY    21  19  92 SW6       29.28R WCI  13
CEDAR CITY     CLOUDY    30  26  85 S9        29.32R WCI  22
MILFORD        CLOUDY    33  31  92 S15       29.28R WCI  23
ST GEORGE      CLOUDY    39  34  81 CALM      29.40R
HANKSVILLE     CLOUDY    34  34 100 MISG      29.31S
KANAB          CLOUDY    34  32  93 S10       29.39R WCI  26
BLANDING       CLOUDY    31  31 100 S5        29.38S VSB 3/4 WCI  26

$$

REGIONAL REPORTS     COLORADO/ARIZONA

CITY           SKY/WX    TMP DP  RH WIND       PRES   REMARKS
CRAIG, CO      CLOUDY    15  10  80 CALM      29.35R
GRAND JUNCTION CLOUDY    34  28  79 SE9       29.32F WCI  27
RIFLE, CO      CLOUDY    26  23  88 CALM      29.35F
MONTROSE, CO   CLOUDY    32  18  56 NE14      29.35F WCI  22
CORTEZ, CO     FLURRIES  32  31  96 NE3       29.33F
COLORADO CITY  LGT SNOW  34  34 100 W13       29.39R WCI  25
PAGE, AZ       LGT RAIN  37  32  82 CALM      29.32R
GRAND CANYON   LGT SNOW  27  27 100 SW14G21   29.38R FOG     WCI  16
KINGMAN, AZ    CLOUDY    41  32  70 SW26G33   29.46R
FLAGSTAFF, AZ  SNOW      26  25  96 W13G24    29.39R VSB 1/4 WCI  15

$$

REGIONAL REPORTS    NEVADA/IDAHO/WYOMING

CITY           SKY/WX    TMP DP  RH WIND       PRES   REMARKS
LAS VEGAS, NV  MOCLDY    45  30  55 SW8       29.41R
ELY, NY        MOCLDY    22  18  85 W3        29.34R
ELKO, NV       CLOUDY    27  23  85 SW3       29.35R
POCATELLO, ID  CLOUDY    28  26  92 CALM      29.31R
BURLEY, ID     LGT SNOW  32  28  85 SW8       29.30R FOG     WCI  25
FORT BRIDGER,  PTSUNNY   11  11 100 W5        29.32S WCI   3
EVANSTON, WY   CLOUDY    15  10  80 E9        29.27S WCI   3
ROCK SPRINGS,  CLOUDY    16  13  88 E8        29.30S WCI   5

$$




USA.gov is the U.S. government's official web portal to all federal, state and local government web resources and services.